RH
22 18 16 17 22 22 21 22 24 25 25 24 23 20 18 17 18 19 20 19 22 20 30 80 23 25 28 38 44 46 50 54 58
27 24 21 18 17 17 18 19 19 20 20 21 21 21 21 21 21 20 21 21 22 24 23 24 23 26 26 29 37 56 68 66 76
32 28 26 25 23 22 22 23 23 23 23 22 22 22 22 22 22 23 23 24 23 23 23 26 26 26 26 26 26 28 36 50 52
39 41 38 33 30 28 27 26 26 26 25 25 24 24 24 24 24 23 23 23 23 24 25 27 28 26 26 25 24 22 21 21 26
42 42 41 44 44 44 41 38 36 35 33 31 29 27 26 26 25 24 24 24 24 24 26 27 25 24 21 19 16 14 12 10 10
44 44 44 44 44 44 44 46 47 45 43 40 38 35 33 31 29 27 25 25 24 24 24 22 20 18 16 13 11 10 9 9 9
45 44 45 46 46 46 47 47 45 46 46 46 45 42 40 38 35 33 30 28 26 24 22 19 16 14 12 12 11 11 11 11 11
46 46 46 46 47 48 49 50 50 49 49 48 48 47 46 44 43 40 36 31 28 26 24 22 20 17 15 13 13 15 16 17 18
47 47 47 47 47 48 49 50 52 52 50 50 50 49 48 47 45 43 41 37 32 28 28 28 27 26 24 22 20 18 16 16 16
48 47 47 47 48 48 49 50 52 53 51 51 51 50 48 46 45 44 43 40 35 32 31 30 29 30 31 32 34 35 36 36 35
49 48 48 48 49 49 50 51 52 53 52 53 53 52 47 44 45 47 46 42 38 34 33 32 34 37 39 39 39 39 39 39 39
52 50 50 51 51 51 50 51 53 53 54 55 56 52 48 50 53 50 47 44 40 37 34 36 39 41 42 42 42 42 41 40 40
55 54 53 54 53 53 52 53 55 54 55 58 58 52 52 54 54 51 49 47 45 41 38 39 42 46 45 45 44 42 41 42 42
58 54 50 53 55 55 55 56 57 56 56 60 59 56 57 57 56 54 58 64 65 56 43 42 44 47 48 48 47 46 45 44 44
52 52 53 54 56 56 56 57 59 59 60 62 61 60 60 61 59 61 66 71 72 70 56 46 46 51 53 54 53 52 50 48 47
58 57 57 57 56 56 59 60 60 61 63 67 64 64 65 66 63 68 74 80 82 80 75 64 53 52 53 56 57 58 57 55 52
61 61 59 61 60 58 59 59 59 62 66 71 70 72 69 69 70 73 76 78 84 80 77 62 57 64 72 68 60 57 60 59 57
50 50 56 58 68 66 62 62 62 65 72 73 79 77 72 73 79 77 76 77 81 86 85 83 78 81 82 84 81 68 61 58 58
56 61 62 59 64 71 74 66 69 72 74 80 80 80 79 81 83 84 96 90 90 90 88 89 91 91 86 90 88 78 72 65 64
67 76 82 71 66 64 64 74 76 74 76 78 83 87 86 87 84 86 88 98 99 98 96 99 98 95 89 91 86 76 73 74 76
Wind_Speed
8 8 8 7 6 5 5 5 4 3 2 2 1 1 1 2 2 3 3 4 4 4 4 5 5 5 4 4 4 4 5 5 5
8 8 8 8 8 7 7 6 5 5 4 3 3 3 3 3 3 4 5 5 6 7 6 7 8 8 8 6 5 4 4 3 3
7 8 8 9 8 8 7 5 5 4 4 3 3 3 3 3 4 4 4 5 5 5 6 6 7 7 7 7 7 8 8 7 5
6 8 9 9 8 8 7 6 5 4 4 4 3 3 3 3 3 4 4 4 6 5 6 6 7 8 9 9 8 10 11 11 12
2 3 4 5 6 6 5 5 4 4 4 3 3 3 2 3 3 4 4 5 7 7 7 8 9 9 10 10 9 9 10 11 11
3 2 1 1 1 2 3 3 4 4 4 4 4 5 5 5 6 6 6 7 9 8 9 9 10 10 9 9 9 9 9 10 10
8 8 7 6 6 5 4 4 4 5 6 7 7 7 8 8 9 9 8 9 10 10 9 9 9 9 8 8 8 8 8 8 9
11 12 12 11 11 11 10 9 8 7 7 8 9 10 10 11 12 13 12 11 11 11 10 9 9 9 8 8 8 8 8 8 8
15 15 15 16 15 15 14 13 13 12 11 11 11 13 14 15 16 16 15 13 12 11 10 9 9 8 8 8 8 9 9 9 10
21 19 19 19 18 18 18 18 16 15 15 14 14 15 17 19 19 18 16 15 13 12 11 10 9 8 8 8 8 8 9 9 10
25 24 22 22 22 21 21 21 20 19 18 17 17 18 20 20 19 18 16 15 14 13 12 10 10 9 8 8 8 9 10 11 12
27 27 26 25 25 24 24 24 23 22 21 19 19 21 20 19 19 18 18 16 15 14 13 12 11 11 10 10 10 10 10 11 13
28 28 28 28 28 27 26 26 25 25 23 22 21 22 20 20 20 19 18 17 16 15 15 15 14 13 13 13 13 13 14 13 14
30 30 31 31 30 29 28 28 27 27 26 25 24 23 22 21 21 20 19 18 18 17 17 17 17 17 17 17 17 17 18 17 17
35 34 34 33 32 31 30 29 29 29 28 27 26 25 24 22 22 21 20 19 19 19 20 20 20 20 21 21 21 21 22 22 22
36 36 35 35 33 32 31 31 32 31 30 30 29 28 26 25 23 22 22 22 21 21 22 22 23 23 24 26 26 26 25 26 26
35 34 35 36 36 36 33 34 33 33 32 31 31 31 30 27 25 23 23 24 24 23 23 23 24 25 27 29 31 30 30 30 31
37 36 37 38 39 39 36 35 36 35 33 33 34 35 34 29 28 26 26 27 26 26 26 28 29 30 31 33 34 34 34 35 36
45 44 43 41 40 39 38 38 37 39 37 36 35 36 36 35 34 32 46 36 31 30 31 32 34 34 36 38 39 37 38 38 39
50 46 44 47 44 41 43 40 40 42 42 41 39 39 38 37 38 41 33 37 38 36 37 35 37 41 40 39 40 39 41 42 42
Wind_Direction
55 61 67 70 72 75 84 96 98 88 74 67 62 34 0 7 350 332 331 327 330 334 347 28 3 348 358 1 340 334 319 298 295
54 61 69 75 78 80 83 84 83 83 78 71 61 45 31 17 2 345 346 343 338 340 343 333 340 338 343 340 334 342 8 19 9
57 64 70 75 78 82 86 88 83 79 75 71 61 50 35 10 0 347 351 343 329 331 332 326 318 317 309 305 295 289 283 283 271
54 57 62 69 74 78 79 76 71 66 60 57 49 43 32 10 350 340 337 317 306 311 309 300 295 295 294 291 285 280 274 270 268
46 52 51 58 60 62 62 58 55 51 48 43 39 28 12 350 333 325 317 306 301 309 302 302 295 297 295 293 289 282 279 277 273
257 254 229 20 24 21 9 358 350 348 350 350 352 348 339 331 324 322 318 311 306 314 310 306 302 304 302 298 296 293 290 288 287
256 248 242 234 239 246 255 288 306 307 315 319 320 320 317 316 313 311 314 308 306 311 312 308 307 309 307 306 304 300 297 293 293
254 254 251 250 248 249 252 258 264 269 279 290 296 299 302 302 302 303 304 303 303 305 306 306 308 307 306 301 300 297 295 293 292
248 253 256 256 257 257 259 261 264 267 269 274 280 288 293 294 294 294 294 294 296 296 296 297 297 299 301 304 306 307 308 306 305
246 248 253 257 260 262 262 263 264 265 266 271 277 285 289 290 289 286 285 285 286 288 288 289 291 294 300 305 308 310 311 311 310
245 246 249 253 257 259 262 264 263 264 264 268 276 284 289 288 286 283 283 280 279 280 281 283 284 287 289 294 300 305 310 313 314
246 247 248 251 253 256 259 261 262 260 260 266 275 284 287 286 283 281 282 279 278 278 278 275 274 278 282 285 287 293 299 305 309
246 247 248 251 253 254 255 257 258 259 260 266 274 280 282 283 280 278 276 278 278 278 277 276 275 273 275 280 286 292 294 298 301
251 251 253 253 253 253 253 253 253 255 258 264 272 276 278 280 278 276 273 274 276 275 273 271 272 274 276 279 283 285 289 292 295
255 256 256 255 255 253 252 252 251 253 257 262 269 270 274 276 274 272 271 272 276 276 273 272 272 274 277 279 280 282 285 288 291
251 253 253 255 256 257 252 250 249 251 255 260 266 268 268 269 271 270 270 271 274 278 277 274 274 276 278 279 280 281 284 286 289
250 254 256 257 258 256 252 252 251 251 253 260 262 262 264 265 267 267 268 271 272 275 277 273 273 276 280 282 281 281 282 284 287
257 257 259 259 258 257 255 252 252 250 251 257 259 260 263 263 261 263 267 272 271 272 275 276 273 276 280 281 281 280 281 282 284
260 261 258 259 256 257 257 254 254 251 252 255 258 260 262 259 256 263 278 260 266 268 272 277 275 274 280 281 277 279 280 281 284
254 252 253 256 256 257 257 257 256 255 256 257 258 258 261 261 263 275 277 261 265 269 272 270 275 273 277 281 280 278 281 282 284